カタログに戻る

STARLINK-36890

運用中通信VLEO
NORAD 68258·PAYLOAD·🇺🇸 United States

打ち上げ Mar 17, 2026 から Vandenberg Space Force Base

Loading…

次のパス (今後24時間)

TLE

最新Source: CelesTrak SupGP

元期: Sep 14, 2026, 21:26 UTC

1 68258C 26054AC  26257.89354167 -.00050063  00000+0 -14782-2 0  2577
2 68258  53.1565 136.2269 0001198  93.0673 338.3980 15.34434344    12

AllMySatでSTARLINK-36890をリアルタイム追跡

Download on the App Store